SENTINEL-3A (41335 NORAD) Tracking and Keplerian Element Data

This shows tracking and keplerian element data for the satellite.

Feedback or suggestion? Click here.




ElementValue
Catalog41335
NameSENTINEL-3A
Epoch Orbit29107
Epoch Day262.07874138
Epoch Year2021
RAAN328.26
Inclination98.632
Eccentricity8.38E-05
Argument of Perigee94.0981
Mean Anonmoly266.0295
Mean Motion14.26734197
Decay Rate-1.1E-07
L11 41335U 16011A 21262.07874138 -.00000011 00000-0 13685-4 0 9996
L22 41335 98.6320 328.2600 0000838 94.0981 266.0295 14.26734197291070

Live tracking and technical data element details for SENTINEL-3A (NORAD 41335). SENTINEL-3A can be tracked NOW for your location showing map with azimuth and elevation plus other details from your city location.

Track the satellite on the map from your city or location and see movement details for azimuth, elevation, latitude, longitude, range, height, and movement on the map or in text.







IsCatalogInMostPopularTable: catalog: 41335, numindb: 644
Update: records affected: 1



GetName: 41335 SENTINEL-3A

Hit Count: updated at: Fri, 24 Sep 2021 18:20:19 GMT